sat.trackr.live / text

‹ back to catalog

STARLINK-35242

NORAD 65493 · 2025-198B

PAYLOAD ACTIVE UNKNOWN

§ Identity

Operator
Country
US
Launch date
2025-09-05
Launch site
AFETR
Launch vehicle
Mass (kg)
RCS (m²)

Purposes: comms

External: N2YO · Heavens-Above · Gunter

§ Orbital elements

Epoch: 2026-09-19T22:03:58.173120Z

Period
93.85 min
Inclination
53.1579°
Eccentricity
0.0001384
Mean motion
15.34399036 rev/d
Perigee alt
461.8 km
Apogee alt
463.7 km
Semi-major
6,840.8 km
B*
3.5471e-4
RAAN
84.1419°
Arg perigee
48.2899°
Mean anomaly
311.8222°
Rev number
5,842

§ Raw data

STARLINK-352421 65493U 25198B   26262.91942330  .00011626  00000+0  35471-3 0  99992 65493  53.1579  84.1419 0001384  48.2899 311.8222 15.34399036 58423

JSON: /api/v1/satellites/65493 · /tle

For live sub-satellite position, see the globe view (requires WebGL).

§ Visibility from observer

Set your observer location to see the next 7 days of passes ≥ 10°. The values pass through the URL so the page stays shareable.

No JS? Fill the form by hand. The geolocation button needs JavaScript.